Regional Weather Roundup
Issued by NWS

Home | Current Version | Previous Version | Graphics & Text | Print | Product List | Glossary On
Versions: 1 2 3 4 5 6 7 8 9 10 11 12 13 14 15 16 17 18 19 20 21 22 23 24 25 26 27 28 29 30 31 32 33 34 35 36 37 38 39 40 41 42 43 44 45 46 47 48 49 50
000
ASUS43 KMPX 290110
RWRMN
WEATHER ROUNDUP FOR MINNESOTA
NATIONAL WEATHER SERVICE TWIN CITIES/CHANHASSEN MN
800 PM CDT SUN MAY 28 2017


NOTE: "FAIR" INDICATES FEW OR NO CLOUDS BELOW 12,000 FEET WITH NO
SIGNIFICANT WEATHER AND/OR OBSTRUCTIONS TO VISIBILITY. N/A MEANS
CURRENT SKY AND/OR WEATHER CONDITIONS ARE NOT AVAILABLE.

MNZ060>063-068>070-290200-
   Twin Cities Metro

CITY           SKY/WX    TMP DP  RH WIND       PRES   REMARKS
TWIN CITIES    MOCLDY    66  44  45 W9        29.72F
ST PAUL        PTCLDY    67  44  43 NW16G22   29.72F
CRYSTAL        CLEAR     65  44  46 W7        29.71S
BLAINE         PTCLDY    66  46  48 W9        29.72S
LAKEVILLE      PTCLDY    64  46  52 NW8       29.73F
EDEN PRAIRIE   CLEAR     66  45  46 NW6       29.71F
SOUTH ST PAUL  MOCLDY    67  42  39 W7        29.72F
LAKE ELMO      FAIR      64  46  52 W9        29.73F
$$
MNZ001>005-007-008-013>017-022>024-027-028-290200-
   Northwest Minnesota

CITY           SKY/WX    TMP DP  RH WIND       PRES   REMARKS
BEMIDJI        RAIN      51  47  88 N6        29.68S
HALLOCK        CLOUDY    55  46  71 NW18      29.75R
ROSEAU         LGT RAIN  54  48  82 NW9       29.70R
WARROAD        CLOUDY    57  50  77 W9        29.68S
THIEF RVR FALL CLOUDY    54  49  83 NW16      29.73S
CROOKSTON      CLOUDY    52  52 100 N14       29.75S
FOSSTON        DRIZZLE   50  46  87 NW14G24   29.73R
DETROIT LAKES  MOCLDY    57  46  67 W13G23    29.74R
MOORHEAD       CLOUDY    55  48  76 N20G25    29.78R
PARK RAPIDS    CLEAR     59  45  59 W13       29.69F
MAHNOMEN       CLOUDY    52  50  90 NW14      29.73R
$$
MNZ006-009>011-018-025>026-290200-
   North Central Minnesota

CITY           SKY/WX    TMP DP  RH WIND       PRES   REMARKS
BAUDETTE       MOCLDY    55  48  77 NW12      29.65S
FLAG ISLAND    MOCLDY    55  48  76 NW14      29.66R
INTL FALLS     LGT RAIN  55  49  80 NW9       29.62S
WASKISH        LGT RAIN  55  50  82 NW8       29.67R
BIG FORK       MOCLDY    55  52  88 W3        29.65S
LONGVILLE      CLEAR     57  46  67 NW8       29.67F
GRAND RAPIDS   PTCLDY    57  51  80 VRB6      29.67F
CRANE LAKE     LGT RAIN  52  50  93 S3        29.64S
ORR            MOCLDY    57  45  62 W8        29.61R
COOK           MOCLDY    57  48  72 W9        29.64R
WALKER         FAIR      56  45  65 W9G17     29.68S
$$
MNZ012-019>021-037-290200-
   Northeast Minnesota

CITY           SKY/WX    TMP DP  RH WIND       PRES   REMARKS
DULUTH         CLOUDY    58  46  64 NW12      29.65S
ELY            RAIN      54  52  94 CALM      29.62F
HIBBING        CLOUDY    54  52  93 CALM      29.64F
EVELETH        CLEAR     57  48  71 W6        29.65F
DULUTH HARBOR  CLOUDY    61  52  72 SW14G23   29.66R
TWO HARBORS    PTCLDY    61  54  77 W3        29.62F
SILVER BAY     DRIZZLE   55  52  88 CALM      29.61F
GRAND MARAIS     N/A     45  45 100 SW6       29.61F
G MARAIS ARPRT MOCLDY    50  45  81 CALM      29.62S
$$
MNZ029>031-032-039>041-046>048-054>057-064-290200-
   West Central Minnesota

CITY           SKY/WX    TMP DP  RH WIND       PRES   REMARKS
FERGUS FALLS   LGT RAIN  57  48  72 NW14      29.73R
WHEATON        PTCLDY    61  46  59 W17       29.78S
MORRIS         PTCLDY    61  48  63 W12       29.75F
ALEXANDRIA     PTCLDY    59  46  62 NW5       29.74F
ELBOW LAKE     FAIR      60  43  52 NW13      29.74F
WADENA         MOCLDY    57  46  67 W9        29.72S
GLENWOOD       CLEAR     61  45  55 W10       29.75F
APPLETON       PTCLDY    63  43  48 W13       29.77F
BENSON         PTCLDY    61  45  55 NW9       29.78S
ORTONVILLE     PTCLDY    63  43  48 W13       29.79S
MADISON        PTCLDY    64  43  45 W10       29.80F
WILLMAR        FAIR      61  46  59 NW7       29.77F
$$
MNZ033>034-036-042>043-049>051-058-059-290200-
   Central Minnesota

CITY           SKY/WX    TMP DP  RH WIND       PRES   REMARKS
ST CLOUD       CLOUDY    56  50  80 N3        29.74R
SAUK CENTRE    FAIR      56  48  72 NW7       29.75F
PAYNESVILLE    CLOUDY    60  42  51 W10G17    29.76F
AITKIN         PTCLDY    54  46  76 SW9       29.68S
PINE RIVER     CLEAR     55  48  76 W3        29.73F
BRAINERD       PTCLDY    57  45  64 W9        29.71F
STAPLES        CLOUDY    57  45  62 W7        29.71F
LONG PRAIRIE   FAIR      54  46  76 CALM      29.74F
LITTLE FALLS   CLOUDY    52  48  87 NW3       29.73F
LITCHFIELD     CLOUDY    63  45  51 NW15      29.76F
BUFFALO        MOCLDY    56  47  71 W12G23    29.76R
MAPLE LAKE     TSTM      57  50  78 NW10G17   29.76R
HUTCHINSON     CLOUDY    64  43  46 NW17G23   29.77S
$$
MNZ037-044-045-052-053-290200-
   East Central Minnesota

CITY           SKY/WX    TMP DP  RH WIND       PRES   REMARKS
PRINCETON      PTCLDY    59  46  63 N6        29.73R
MORA           CLOUDY    55  52  88 CALM      29.73F
CAMBRIDGE      LGT RAIN  61  48  63 NW3       29.71R
RUSH CITY      CLOUDY    58  49  73 W3        29.72F
MOOSE LAKE     CLOUDY    55  46  71 SW3       29.67S
HINCKLEY       MOCLDY    55  50  82 W6        29.71F
CLOQUET        MOCLDY    54  48  82 CALM      29.67S
MCGREGOR       CLOUDY    55  50  82 W3        29.68S
$$
MNZ071>073-080-081-089-090-097-098-290200-
   Southwest Minnesota

CITY           SKY/WX    TMP DP  RH WIND       PRES   REMARKS
MONTEVIDEO     PTCLDY    63  43  48 NW7       29.79F
CANBY          CLOUDY    60  49  65 CALM      29.85S
MARSHALL       CLOUDY    61  46  57 W13       29.83R
REDWOOD FALLS  PTCLDY    63  44  50 NW12      29.79S
OLIVIA         PTCLDY    63  45  51 NW14G25   29.78F
WINDOM         CLOUDY    68  36  30 NW24G36   29.83R
WORTHINGTON    CLOUDY    63  43  48 NW37G45   29.87R
JACKSON        MOCLDY    68  36  30 NW16G23   29.84R
TRACY          CLOUDY    63  46  53 NW20G29   29.87R
SLAYTON        RAIN      56  48  75 W22       29.92R
$$
MNZ065>067-074>077-082>085-091>093-290200-
   South Central Minnesota

CITY           SKY/WX    TMP DP  RH WIND       PRES   REMARKS
MANKATO        CLEAR     69  40  34 W13       29.76S
NEW ULM        CLOUDY    64  41  42 NW18G25   29.78R
ST JAMES       CLOUDY    68  36  30 W21G30    29.80S
FAIRMONT       PTCLDY    69  39  33 NW16G24   29.81R
GLENCOE        MOCLDY    66  45  47 W21G35    29.75R
FARIBAULT      CLEAR     66  45  45 W8        29.75F
OWATONNA       PTCLDY    66  45  45 W8        29.76S
WASECA         CLEAR     68  37  32 W13G18    29.77S
ALBERT LEA     CLEAR     72  39  30 NW13G18   29.77S
$$
MNZ078>079-086>088-094>096-290200-
   Southeast Minnesota

CITY           SKY/WX    TMP DP  RH WIND       PRES   REMARKS
ROCHESTER      PTCLDY    66  45  46 N13       29.75S
RED WING       CLEAR     68  37  32 NW13G18   29.72S
STANTON        CLEAR     66  46  48 NW8       29.73S
DODGE CENTER   CLEAR     66  45  45 W8        29.76S
WINONA         PTCLDY    70  45  40 NW9       29.72S
AUSTIN         CLEAR     68  39  34 W12       29.76S
PRESTON        CLEAR     66  41  40 NW10      29.76S
$$
ABBREVIATIONS USED IN REMARKS
   TC - TEMPERATURES IN CELSIUS
  WCI - WIND CHILL INDEX
   HX - HEAT INDEX
  VSB - VISIBILITY
$$



USA.gov is the U.S. government's official web portal to all federal, state and local government web resources and services.